Location: Peterborough
(44.3091°N, 78.3197°W)
Time: 19:36:54
(UTC-04:00)

Vanguard 3 - Pass Details

Date: 27 March 2023
Orbit: 507 x 3246 km, 33.4° (Epoch: 06 June)

Event Time Altitude Azimuth Distance (km) Brightness Sun altitude
Exits shadow 02:16:36 32° 137° (SE) 4,537 10.6 -41.4°
Drops below altitude 10° 02:31:07 10° 90° (E) 6,042 11.7 -40.5°
Sets 02:36:14 0° 82° (E) 6,864 12.2 -40.1°
